TimeEST,TemperatureF,Dew PointF,Humidity,Sea Level PressureIn,VisibilityMPH,Wind Direction,Wind SpeedMPH,Gust SpeedMPH,PrecipitationIn,Events,Conditions,WindDirDegrees,DateUTC
12:24 AM,36.0,32.0,86,30.11,10.0,NE,15.0,-,N/A,,Overcast,40,2013-03-06 05:24:00
12:51 AM,36.0,32.0,86,30.12,10.0,NE,11.5,-,N/A,,Overcast,40,2013-03-06 05:51:00
1:51 AM,35.1,32.0,89,30.13,10.0,NE,11.5,-,0.00,,Overcast,40,2013-03-06 06:51:00
2:51 AM,35.1,32.0,89,30.14,10.0,NNE,12.7,-,0.00,,Overcast,30,2013-03-06 07:51:00
3:51 AM,36.0,32.0,86,30.14,10.0,NE,15.0,-,N/A,,Overcast,40,2013-03-06 08:51:00
4:51 AM,36.0,32.0,86,30.15,10.0,NE,16.1,-,N/A,,Overcast,50,2013-03-06 09:51:00
5:08 AM,36.0,32.0,86,30.15,10.0,NE,18.4,-,N/A,,Overcast,50,2013-03-06 10:08:00
5:51 AM,36.0,30.9,82,30.17,10.0,NE,15.0,23.0,N/A,,Overcast,50,2013-03-06 10:51:00
6:51 AM,35.1,30.0,82,30.19,10.0,NE,13.8,23.0,N/A,,Overcast,40,2013-03-06 11:51:00
7:51 AM,36.0,30.0,79,30.20,10.0,NE,13.8,-,N/A,,Mostly Cloudy,50,2013-03-06 12:51:00
8:51 AM,37.0,28.0,70,30.22,10.0,ENE,17.3,-,N/A,,Mostly Cloudy,60,2013-03-06 13:51:00
9:51 AM,37.0,27.0,67,30.22,10.0,NE,16.1,-,N/A,,Overcast,50,2013-03-06 14:51:00
10:51 AM,37.0,28.0,70,30.21,10.0,NE,18.4,-,N/A,,Overcast,50,2013-03-06 15:51:00
11:51 AM,37.9,28.9,70,30.22,10.0,ENE,15.0,-,N/A,,Overcast,60,2013-03-06 16:51:00
12:51 PM,37.0,30.0,76,30.20,10.0,NE,20.7,28.8,N/A,,Overcast,50,2013-03-06 17:51:00
1:51 PM,37.9,27.0,65,30.19,10.0,East,28.8,-,N/A,,Overcast,90,2013-03-06 18:51:00
2:51 PM,37.0,27.0,67,30.21,10.0,ENE,21.9,29.9,N/A,,Overcast,60,2013-03-06 19:51:00
3:51 PM,36.0,27.0,70,30.21,10.0,ENE,21.9,32.2,0.00,,Overcast,60,2013-03-06 20:51:00
4:51 PM,36.0,27.0,70,30.21,10.0,ENE,21.9,28.8,N/A,,Overcast,60,2013-03-06 21:51:00
5:51 PM,35.1,27.0,72,30.22,10.0,NE,23.0,27.6,N/A,,Overcast,50,2013-03-06 22:51:00
6:51 PM,35.1,27.0,72,30.23,10.0,NE,20.7,27.6,N/A,,Overcast,50,2013-03-06 23:51:00
7:51 PM,34.0,26.1,73,30.22,10.0,NE,15.0,25.3,N/A,,Overcast,40,2013-03-07 00:51:00
8:51 PM,34.0,26.1,73,30.21,10.0,NNE,19.6,-,N/A,,Overcast,30,2013-03-07 01:51:00
9:51 PM,34.0,26.1,73,30.20,10.0,NE,11.5,27.6,N/A,,Overcast,40,2013-03-07 02:51:00
10:28 PM,33.1,26.1,75,30.20,10.0,NNE,15.0,-,N/A,,Overcast,30,2013-03-07 03:28:00
10:51 PM,33.1,26.1,75,30.19,10.0,NE,18.4,24.2,N/A,,Overcast,40,2013-03-07 03:51:00
11:28 PM,33.1,26.1,75,30.18,10.0,NNE,17.3,27.6,N/A,,Overcast,30,2013-03-07 04:28:00
11:51 PM,32.0,26.1,79,30.17,10.0,NNE,16.1,24.2,N/A,,Overcast,30,2013-03-07 04:51:00